De Soto, IL

10:01 AM CDT on September 25, 2016 (GMT -0500)
Southern Illinois

Weather History for KMDH - April, 2013

Change the Weather History Date:

Friday, April 26, 2013

  Actual Average Record
Temperature  
Mean Temperature 50 °F -  
Max Temperature 55 °F 70 °F 91 °F (1925)
Min Temperature 46 °F 46 °F 28 °F (1919)
Degree Days  
Heating Degree Days 14    
Moisture  
Dew Point 43 °F    
Average Humidity 77    
Maximum Humidity 96    
Minimum Humidity 64    
Precipitation  
Precipitation 0.12 in - - ()
Sea Level Pressure  
Sea Level Pressure 30.35 in    
Wind  
Wind Speed 5 mph (SSE)    
Max Wind Speed 13 mph    
Max Gust Speed -    
Visibility 9 miles    
Events Rain    
Averages and records for this station are not official NWS values.
T = Trace of Precipitation, MM = Missing Value Source: NWS Daily Summary

Daily Weather History Graph

Daily Weather History Graph

Search for Another Location

Airport or City:

Trip Planner

Search our weather history database for the weather conditions in past years. The results will help you decide how hot, cold, wet, or windy it might be!

Date:

Astronomy

Apr. 26, 2013 Rise Set
Actual Time 6:06 AM CDT 7:43 PM CDT
Civil Twilight 5:39 AM CDT 8:11 PM CDT
Nautical Twilight 5:05 AM CDT 8:44 PM CDT
Astronomical Twilight 4:30 AM CDT 9:20 PM CDT
Moon 9:04 PM CDT (4/26) 6:35 AM CDT (4/26)
Length of Visible Light 14h 31m
Length of Day
13h 36m
Full, 99% of the Moon is Illuminated
Apr 26
Full
May 2
Last Quarter
May 9
New
May 17
First Quarter
May 24
Full

Hourly Weather History & Observations

Time (CDT) Temp. Dew Point Humidity Pressure Visibility Wind Dir Wind Speed Gust Speed Precip Events Conditions
12:52 AM 46.9 °F 37.9 °F 71% 30.35 in 10.0 mi SE 5.8 mph - N/A   Clear
1:52 AM 46.9 °F 36.0 °F 66% 30.34 in 10.0 mi SSE 4.6 mph - N/A   Clear
2:52 AM 46.9 °F 37.9 °F 71% 30.34 in 10.0 mi ESE 3.5 mph - N/A   Clear
3:52 AM 48.0 °F 37.9 °F 68% 30.34 in 10.0 mi ESE 3.5 mph - N/A   Clear
4:52 AM 46.9 °F 37.9 °F 71% 30.32 in 10.0 mi SE 5.8 mph - N/A   Clear
5:52 AM 46.0 °F 39.0 °F 76% 30.33 in 10.0 mi Calm Calm - N/A   Clear
6:52 AM 48.9 °F 41.0 °F 74% 30.34 in 10.0 mi East 3.5 mph - N/A   Clear
7:52 AM 50.0 °F 39.0 °F 66% 30.37 in 10.0 mi SE 5.8 mph - N/A   Partly Cloudy
8:52 AM 51.1 °F 43.0 °F 74% 30.43 in 10.0 mi Variable 4.6 mph - N/A   Overcast
9:52 AM 52.0 °F 42.1 °F 69% 30.42 in 10.0 mi SSE 4.6 mph - N/A   Overcast
10:52 AM 54.0 °F 42.1 °F 64% 30.43 in 10.0 mi South 8.1 mph - N/A   Overcast
11:52 AM 54.0 °F 44.1 °F 69% 30.43 in 10.0 mi SSW 12.7 mph - 0.00 in Rain Light Rain
1:52 PM 52.0 °F 46.0 °F 80% 30.40 in 10.0 mi SSW 9.2 mph - 0.00 in   Overcast
2:52 PM 53.1 °F 46.0 °F 77% 30.38 in 10.0 mi South 9.2 mph - N/A   Overcast
3:52 PM 54.0 °F 46.9 °F 77% 30.32 in 10.0 mi SE 3.5 mph - N/A   Overcast
4:52 PM 55.0 °F 46.0 °F 72% 30.32 in 10.0 mi SE 10.4 mph - N/A   Overcast
5:52 PM 54.0 °F 45.0 °F 72% 30.34 in 10.0 mi SE 5.8 mph - N/A   Overcast
6:52 PM 53.1 °F 46.0 °F 77% 30.33 in 10.0 mi SSE 3.5 mph - N/A   Overcast
7:52 PM 51.1 °F 48.0 °F 89% 30.31 in 10.0 mi Calm Calm - 0.01 in Rain Light Rain
8:52 PM 51.1 °F 48.0 °F 89% 30.30 in 9.0 mi South 9.2 mph - 0.01 in Rain Light Rain
9:52 PM 50.0 °F 48.0 °F 93% 30.33 in 6.0 mi SSE 3.5 mph - 0.06 in Rain Light Rain
10:52 PM 50.0 °F 48.0 °F 93% 30.31 in 7.0 mi NE 4.6 mph - 0.02 in Rain Light Rain
11:13 PM 50.0 °F 48.2 °F 94% 30.33 in 6.0 mi Calm Calm - 0.02 in Rain Light Rain
11:52 PM 50.0 °F 48.9 °F 96% 30.34 in 7.0 mi Calm Calm - 0.02 in Rain Light Rain